TimeEST,TemperatureF,Dew PointF,Humidity,Sea Level PressureIn,VisibilityMPH,Wind Direction,Wind SpeedMPH,Gust SpeedMPH,PrecipitationIn,Events,Conditions,WindDirDegrees,DateUTC
12:51 AM,33.1,27.0,78,30.01,10.0,South,3.5,-,N/A,,Scattered Clouds,190,2012-12-24 05:51:00
1:43 AM,37.4,33.8,87,29.94,10.0,South,5.8,-,N/A,,Mostly Cloudy,190,2012-12-24 06:43:00
1:51 AM,37.9,34.0,86,29.98,10.0,SSW,5.8,-,N/A,,Mostly Cloudy,210,2012-12-24 06:51:00
2:23 AM,39.2,35.6,87,29.94,10.0,South,3.5,-,N/A,,Overcast,180,2012-12-24 07:23:00
2:51 AM,39.0,35.1,86,29.97,10.0,South,3.5,-,N/A,,Overcast,180,2012-12-24 07:51:00
3:51 AM,39.0,35.1,86,29.97,10.0,South,3.5,-,N/A,,Overcast,190,2012-12-24 08:51:00
4:51 AM,37.9,36.0,93,29.95,4.0,ESE,3.5,-,N/A,,Overcast,120,2012-12-24 09:51:00
5:51 AM,39.0,37.0,93,29.94,9.0,SSE,4.6,-,N/A,,Overcast,150,2012-12-24 10:51:00
6:51 AM,37.9,36.0,93,29.94,10.0,SSE,8.1,-,N/A,,Overcast,150,2012-12-24 11:51:00
7:40 AM,37.4,35.6,93,29.87,9.0,SE,5.8,-,N/A,,Overcast,140,2012-12-24 12:40:00
7:51 AM,37.9,36.0,93,29.92,5.0,SSE,5.8,-,N/A,,Overcast,150,2012-12-24 12:51:00
8:44 AM,39.2,35.6,87,29.84,10.0,SE,9.2,18.4,N/A,,Overcast,140,2012-12-24 13:44:00
8:51 AM,39.0,36.0,89,29.89,10.0,SE,9.2,18.4,N/A,,Overcast,140,2012-12-24 13:51:00
9:51 AM,39.9,37.0,89,29.89,10.0,SSE,11.5,20.7,N/A,,Overcast,150,2012-12-24 14:51:00
9:58 AM,39.2,37.4,93,29.85,10.0,SSE,12.7,-,0.00,Rain,Light Rain,160,2012-12-24 14:58:00
10:17 AM,39.2,37.4,93,29.85,7.0,SSE,12.7,-,0.00,Rain,Light Rain,160,2012-12-24 15:17:00
10:41 AM,39.2,37.4,93,29.83,4.0,SSE,10.4,-,0.02,Rain,Light Rain,150,2012-12-24 15:41:00
10:51 AM,39.9,37.0,89,29.87,6.0,SSE,12.7,20.7,0.03,Rain,Light Rain,150,2012-12-24 15:51:00
11:19 AM,39.2,37.4,93,29.82,5.0,SE,11.5,-,0.03,Rain,Rain,140,2012-12-24 16:19:00
11:51 AM,39.9,37.9,93,29.84,9.0,SSE,10.4,19.6,0.09,Rain,Light Rain,150,2012-12-24 16:51:00
12:07 PM,39.2,37.4,93,29.80,10.0,SSE,4.6,-,0.00,Rain,Light Rain,160,2012-12-24 17:07:00
12:51 PM,42.1,39.0,89,29.82,10.0,SSE,6.9,-,0.02,Rain,Light Rain,160,2012-12-24 17:51:00
1:51 PM,42.1,39.0,89,29.82,10.0,SSE,6.9,-,0.00,,Overcast,150,2012-12-24 18:51:00
2:51 PM,43.0,39.9,89,29.81,6.0,SSE,5.8,-,0.00,Rain,Light Rain,160,2012-12-24 19:51:00
3:32 PM,44.6,42.8,93,29.78,4.0,Calm,Calm,-,0.01,Rain,Light Rain,0,2012-12-24 20:32:00
3:51 PM,45.0,43.0,93,29.81,3.0,SW,5.8,-,0.02,,Overcast,230,2012-12-24 20:51:00
4:51 PM,45.0,43.0,93,29.82,10.0,WSW,9.2,-,N/A,,Overcast,240,2012-12-24 21:51:00
5:51 PM,45.0,43.0,93,29.84,4.0,WSW,5.8,-,N/A,,Overcast,250,2012-12-24 22:51:00
6:51 PM,44.1,43.0,96,29.86,8.0,WSW,5.8,-,N/A,,Overcast,250,2012-12-24 23:51:00
7:51 PM,44.1,42.1,93,29.88,10.0,West,8.1,-,0.01,Rain,Light Rain,280,2012-12-25 00:51:00
8:13 PM,44.6,42.8,93,29.85,10.0,WNW,5.8,-,0.00,,Overcast,290,2012-12-25 01:13:00
8:51 PM,44.1,41.0,89,29.90,10.0,WNW,5.8,-,0.00,,Overcast,290,2012-12-25 01:51:00
9:10 PM,42.8,41.0,93,29.87,10.0,West,5.8,-,N/A,,Overcast,280,2012-12-25 02:10:00
9:51 PM,43.0,41.0,93,29.91,10.0,WNW,4.6,-,N/A,,Overcast,290,2012-12-25 02:51:00
10:00 PM,42.8,41.0,93,29.89,10.0,West,4.6,-,N/A,,Overcast,280,2012-12-25 03:00:00
10:51 PM,42.1,39.9,92,29.92,10.0,West,4.6,-,N/A,,Overcast,260,2012-12-25 03:51:00
11:51 PM,42.1,39.0,89,29.94,10.0,WSW,3.5,-,N/A,,Overcast,240,2012-12-25 04:51:00